Two Harbors, MN

12:18 PM CST on February 19, 2017 (GMT -0600)
Helgeson

Weather History for KTWM - October, 2012

Change the Weather History Date:

Friday, October 19, 2012

  Actual Average Record
Temperature  
Mean Temperature 43 °F -  
Max Temperature 51 °F 50 °F 72 °F (1953)
Min Temperature 35 °F 34 °F 20 °F (1992)
Degree Days  
Heating Degree Days 22    
Moisture  
Dew Point 38 °F    
Average Humidity 78    
Maximum Humidity 87    
Minimum Humidity 62    
Precipitation  
Precipitation 0.06 in - - ()
Sea Level Pressure  
Sea Level Pressure 29.59 in    
Wind  
Wind Speed 6 mph (ENE)    
Max Wind Speed 12 mph    
Max Gust Speed 18 mph    
Visibility 9 miles    
Events Rain    
Averages and records for this station are not official NWS values.
T = Trace of Precipitation, MM = Missing Value Source: NWS Daily Summary

Daily Weather History Graph

Daily Weather History Graph

Search for Another Location

Airport or City:

Trip Planner

Search our weather history database for the weather conditions in past years. The results will help you decide how hot, cold, wet, or windy it might be!

Date:

Astronomy

Oct. 19, 2012 Rise Set
Actual Time 7:31 AM CDT 6:11 PM CDT
Civil Twilight 7:00 AM CDT 6:42 PM CDT
Nautical Twilight 6:25 AM CDT 7:17 PM CDT
Astronomical Twilight 5:49 AM CDT 7:52 PM CDT
Moon 12:28 PM CDT 9:36 PM CDT
Length of Visible Light 11h 41m
Length of Day
10h 39m
Waxing Crescent, 24% of the Moon is Illuminated
Oct 19
Waxing Crescent
Oct 21
First Quarter
Oct 29
Full
Nov 6
Last Quarter
Nov 13
New

Hourly Weather History & Observations

Time (CDT) Temp. Windchill Dew Point Humidity Pressure Visibility Wind Dir Wind Speed Gust Speed Precip Events Conditions
12:31 AM 46.4 °F 42.9 °F 41.0 °F 81% 29.41 in 4.0 mi ENE 6.9 mph - N/A   Drizzle
12:51 AM 46.4 °F 43.5 °F 41.0 °F 81% 29.42 in 2.0 mi ENE 5.8 mph - 0.01 in   Drizzle
1:11 AM 44.6 °F 40.2 °F 41.0 °F 87% 29.42 in 7.0 mi ENE 8.1 mph - N/A   Overcast
1:32 AM 44.6 °F 43.1 °F 41.0 °F 87% 29.43 in 10.0 mi NNE 3.5 mph - N/A   Overcast
1:51 AM 46.4 °F 44.3 °F 41.0 °F 81% 29.44 in 5.0 mi NE 4.6 mph - N/A   Haze
2:11 AM 46.4 °F 44.3 °F 41.0 °F 81% 29.45 in 10.0 mi NE 4.6 mph - N/A   Overcast
2:32 AM 46.4 °F 45.2 °F 41.0 °F 81% 29.45 in 5.0 mi NE 3.5 mph - N/A   Drizzle
2:51 AM 46.4 °F 43.5 °F 41.0 °F 81% 29.45 in 10.0 mi NNE 5.8 mph - N/A   Overcast
3:11 AM 46.4 °F 43.5 °F 41.0 °F 81% 29.45 in 2.5 mi NNE 5.8 mph - 0.01 in   Heavy Drizzle
3:32 AM 46.4 °F 45.2 °F 41.0 °F 81% 29.45 in 7.0 mi North 3.5 mph - 0.01 in   Drizzle
3:51 AM 46.4 °F 45.2 °F 41.0 °F 81% 29.46 in 10.0 mi NNE 3.5 mph - 0.02 in   Drizzle
4:11 AM 46.4 °F 45.2 °F 41.0 °F 81% 29.47 in 10.0 mi NE 3.5 mph - 0.01 in Rain Light Rain
4:31 AM 46.4 °F 42.9 °F 41.0 °F 81% 29.47 in 7.0 mi NE 6.9 mph - 0.03 in Rain Light Rain
4:51 AM 44.6 °F 39.2 °F 39.2 °F 81% 29.47 in 1.8 mi NE 10.4 mph - 0.03 in   Drizzle
5:12 AM 44.6 °F 39.7 °F 39.2 °F 81% 29.49 in 10.0 mi NE 9.2 mph - N/A   Overcast
5:31 AM 44.6 °F 39.7 °F 39.2 °F 81% 29.50 in 10.0 mi NE 9.2 mph - N/A   Overcast
5:51 AM 44.6 °F 39.7 °F 39.2 °F 81% 29.51 in 4.0 mi ENE 9.2 mph - N/A   Haze
6:11 AM 44.6 °F 39.7 °F 39.2 °F 81% 29.52 in 10.0 mi ENE 9.2 mph - N/A   Overcast
6:31 AM 44.6 °F 39.7 °F 39.2 °F 81% 29.52 in 10.0 mi ENE 9.2 mph - N/A   Overcast
6:52 AM 44.6 °F 40.2 °F 39.2 °F 81% 29.54 in 10.0 mi ENE 8.1 mph - N/A   Overcast
7:11 AM 44.6 °F 40.7 °F 39.2 °F 81% 29.54 in 10.0 mi ENE 6.9 mph - N/A   Overcast
7:31 AM 42.8 °F 38.0 °F 37.4 °F 81% 29.55 in 10.0 mi NE 8.1 mph - N/A   Overcast
7:52 AM 42.8 °F 38.6 °F 37.4 °F 81% 29.56 in 10.0 mi NE 6.9 mph - N/A   Overcast
8:11 AM 42.8 °F 39.3 °F 37.4 °F 81% 29.56 in 10.0 mi NE 5.8 mph - N/A   Overcast
8:32 AM 42.8 °F 39.3 °F 39.2 °F 87% 29.57 in 10.0 mi NE 5.8 mph - N/A   Overcast
8:51 AM 42.8 °F 38.0 °F 39.2 °F 87% 29.58 in 10.0 mi NE 8.1 mph - N/A   Overcast
9:11 AM 42.8 °F 38.6 °F 39.2 °F 87% 29.58 in 10.0 mi NE 6.9 mph - N/A   Overcast
9:32 AM 44.6 °F 41.4 °F 39.2 °F 81% 29.59 in 10.0 mi NE 5.8 mph - N/A   Overcast
9:51 AM 44.6 °F 40.7 °F 39.2 °F 81% 29.60 in 10.0 mi ENE 6.9 mph - N/A   Overcast
10:11 AM 44.6 °F 40.2 °F 39.2 °F 81% 29.60 in 10.0 mi ENE 8.1 mph - N/A   Overcast
10:32 AM 44.6 °F 41.4 °F 39.2 °F 81% 29.60 in 10.0 mi ENE 5.8 mph - N/A   Overcast
10:51 AM 44.6 °F 40.7 °F 39.2 °F 81% 29.61 in 10.0 mi ENE 6.9 mph - N/A   Mostly Cloudy
11:11 AM 46.4 °F 42.4 °F 39.2 °F 76% 29.61 in 10.0 mi ENE 8.1 mph - N/A   Mostly Cloudy
11:32 AM 50.0 °F - 42.8 °F 76% 29.62 in 10.0 mi East 11.5 mph 16.1 mph N/A   Overcast
11:51 AM 50.0 °F - 41.0 °F 71% 29.62 in 10.0 mi ENE 10.4 mph - N/A   Scattered Clouds
12:11 PM 50.0 °F - 39.2 °F 66% 29.62 in 10.0 mi East 10.4 mph - N/A   Scattered Clouds
12:32 PM 51.8 °F - 39.2 °F 62% 29.62 in 10.0 mi NNE 8.1 mph 17.3 mph N/A   Mostly Cloudy
12:51 PM 48.2 °F - 37.4 °F 66% 29.63 in 10.0 mi NE 8.1 mph - N/A   Overcast
1:11 PM 51.8 °F - 39.2 °F 62% 29.62 in 10.0 mi East 10.4 mph - N/A   Mostly Cloudy
1:32 PM 51.8 °F - 39.2 °F 62% 29.63 in 10.0 mi East 11.5 mph - N/A   Mostly Cloudy
1:51 PM 50.0 °F - 39.2 °F 66% 29.63 in 10.0 mi ESE 11.5 mph 18.4 mph N/A   Scattered Clouds
2:11 PM 51.8 °F - 39.2 °F 62% 29.63 in 10.0 mi East 9.2 mph - N/A   Mostly Cloudy
2:31 PM 51.8 °F - 39.2 °F 62% 29.63 in 10.0 mi East 9.2 mph - N/A   Overcast
2:51 PM 50.0 °F - 37.4 °F 62% 29.64 in 10.0 mi NE 4.6 mph - N/A   Overcast
3:12 PM 48.2 °F - 37.4 °F 66% 29.64 in 10.0 mi East 6.9 mph - N/A   Overcast
3:31 PM 48.2 °F - 37.4 °F 66% 29.65 in 10.0 mi ESE 5.8 mph - N/A   Overcast
3:51 PM 48.2 °F - 37.4 °F 66% 29.66 in 10.0 mi East 3.5 mph - N/A   Overcast
4:12 PM 46.4 °F 45.2 °F 37.4 °F 71% 29.65 in 10.0 mi East 3.5 mph - N/A   Overcast
4:31 PM 46.4 °F 44.3 °F 37.4 °F 71% 29.66 in 10.0 mi East 4.6 mph - N/A   Overcast
4:51 PM 46.4 °F 45.2 °F 37.4 °F 71% 29.66 in 10.0 mi ENE 3.5 mph - N/A Rain Light Rain
5:12 PM 46.4 °F - 39.2 °F 76% 29.66 in 10.0 mi Calm Calm - N/A   Overcast
5:32 PM 46.4 °F - 39.2 °F 76% 29.66 in 10.0 mi Calm Calm - N/A   Mostly Cloudy
5:51 PM 44.6 °F - 37.4 °F 76% 29.67 in 10.0 mi Calm Calm - N/A   Overcast
6:12 PM 44.6 °F - 37.4 °F 76% 29.67 in 10.0 mi Calm Calm - N/A   Overcast
6:31 PM 42.8 °F - 37.4 °F 81% 29.68 in 10.0 mi Calm Calm - N/A   Scattered Clouds
6:51 PM 39.2 °F - 35.6 °F 87% 29.68 in 10.0 mi Calm Calm - N/A   Clear
7:11 PM 39.2 °F - 35.6 °F 87% 29.68 in 10.0 mi Calm Calm - N/A   Clear
7:31 PM 39.2 °F - 33.8 °F 81% 29.68 in 10.0 mi Calm Calm - N/A   Clear
7:52 PM 37.4 °F - 32.0 °F 81% 29.68 in 10.0 mi Calm Calm - N/A   Clear
8:11 PM 35.6 °F - 30.2 °F 81% 29.69 in 10.0 mi Calm Calm - N/A   Scattered Clouds
8:31 PM 35.6 °F - 30.2 °F 81% 29.69 in 10.0 mi Calm Calm - N/A   Mostly Cloudy
8:52 PM 35.6 °F - 30.2 °F 81% 29.70 in 10.0 mi Calm Calm - N/A   Overcast
9:11 PM 37.4 °F - 33.8 °F 87% 29.70 in 10.0 mi Calm Calm - N/A   Overcast
9:31 PM 39.2 °F - 33.8 °F 81% 29.70 in 10.0 mi Calm Calm - N/A   Overcast
9:52 PM 39.2 °F - 35.6 °F 87% 29.70 in 10.0 mi Calm Calm - N/A   Overcast
10:11 PM 39.2 °F - 33.8 °F 81% 29.71 in 10.0 mi Calm Calm - N/A   Overcast
10:31 PM 39.2 °F - 35.6 °F 87% 29.71 in 10.0 mi Calm Calm - N/A   Overcast
10:52 PM 39.2 °F - 35.6 °F 87% 29.71 in 10.0 mi Calm Calm - N/A   Overcast
11:11 PM 39.2 °F - 35.6 °F 87% 29.70 in 10.0 mi Calm Calm - N/A   Overcast
11:31 PM 39.2 °F - 35.6 °F 87% 29.70 in 10.0 mi Calm Calm - N/A   Overcast
11:52 PM 39.2 °F - 35.6 °F 87% 29.70 in 10.0 mi Calm Calm - N/A   Overcast